Regional Weather Roundup
Issued by NWS

Home | Current Version | Previous Version | Graphics & Text | Print | Product List | Glossary On
Versions: 1 2 3 4 5 6 7 8 9 10 11 12 13 14 15 16 17 18 19 20 21 22 23 24 25 26 27 28 29 30 31 32 33 34 35 36 37 38 39 40 41 42 43 44 45 46 47 48 49 50
000
ASUS43 KDTX 252301
RWRMI
MICHIGAN HOURLY REGIONAL WEATHER ROUNDUP
NATIONAL WEATHER SERVICE DETROIT/PONTIAC MI
700 PM EDT TUE APR 25 2017

NOTE: "FAIR" INDICATES FEW OR NO CLOUDS BELOW 12,000 FEET WITH NO
SIGNIFICANT WEATHER AND/OR OBSTRUCTION TO VISIBILITY.

MIZ047>049-052>055-059>063-066>070-074>076-081>083-260000-
SOUTHEAST LOWER MICHIGAN

CITY           SKY/WX    TMP DP  RH WIND       PRES   REMARKS
ADRIAN         MOSUNNY   67  54  63 SE15      29.71F
ALMA           CLOUDY    70  55  58 SE9       29.69F
ANN ARBOR      CLOUDY    69  56  62 E8        29.72F
BAD AXE        CLOUDY    63  53  69 SE9       29.75F
CARO           CLOUDY    68  54  60 SE12      29.71F
DETROIT CITY   CLOUDY    66  55  67 E9        29.75F
DETROIT        CLOUDY    70  55  59 E9        29.74F
FLINT          CLOUDY    70  53  54 SE16      29.71F
GROSSE ILE     CLOUDY    66  54  63 E7        29.73S
HILLSDALE      MOSUNNY   70  54  56 SE13      29.69S
HOWELL         PTSUNNY   70  51  50 SE8       29.71S

CITY           SKY/WX    TMP DP  RH WIND       PRES   REMARKS
JACKSON        CLOUDY    70  54  56 SE10      29.70F
LAMBERTVILLE   CLOUDY    59  53  78 E8G16     29.73S
LANSING        MOSUNNY   72  53  51 SE9       29.69F
LAPEER         FAIR      67  53  59 SE10      29.74F
MASON          CLOUDY    70  55  59 E10       29.70F
MONROE         MOSUNNY   58  51  77 E7        29.73F
MT. CLEMENS    PTSUNNY   64  55  72 SE10      29.75F
PONTIAC        CLOUDY    67  54  63 E13       29.72F
PORT HOPE        N/A     48  46  93 E14       29.75F
PORT HURON     CLOUDY    66  52  59 SE3       29.77S
TRI CITIES       N/A     71  55  56 SE3       29.71F
MIDLAND        PTSUNNY   67  53  59 NE7       29.70F
TROY           MOSUNNY   67  50  54 E8        29.77S
SAGINAW HB     CLOUDY    70  50  49 SE9       29.71S
$$
MIZ043>046-050>051-056>058-064>065-071>073-077>080-260000-
SOUTHWEST LOWER MICHIGAN

CITY           SKY/WX    TMP DP  RH WIND       PRES   REMARKS
BATTLE CREEK   MOSUNNY   72  55  55 SE15      29.66F
BENTON HARBOR  MOSUNNY   72  53  51 SE12      29.60F
BIG RAPIDS     CLOUDY    69  51  54 SE17G26   29.67S
COLDWATER      CLOUDY    72  52  48 SE13G18   29.67F
FREMONT        FAIR      70  50  48 SE10      29.63F
HOLLAND        CLOUDY    73  55  53 SE9       29.62F
GRAND RAPIDS   PTSUNNY   72  54  53 SE13      29.64F
IONIA          FAIR      71  54  55 SE12      29.66F
KALAMAZOO      MOSUNNY   74  52  46 S9G18     29.64F
LUDINGTON      CLOUDY    66  55  65 CALM      29.61F
MARSHALL       MOSUNNY   73  55  52 SE9       29.67F
MOUNT PLEASANT PTSUNNY   69  52  54 SE9       29.69F
MUSKEGON       CLOUDY    73  53  49 SE15      29.61F
SOUTH HAVEN    CLOUDY    73  53  50 SE7       29.62S
$$
MIZ016>042-260000-
NORTHERN LOWER MICHIGAN

CITY           SKY/WX    TMP DP  RH WIND       PRES   REMARKS
ALPENA         CLOUDY    47  46  97 SE10      29.76F
BEAVER ISLAND  CLOUDY    46  40  82 E12       29.70S
BELLAIRE       PTSUNNY   71  49  45 SE13      29.66S
CADILLAC       MOSUNNY   67  52  58 SE9       29.69S
CHARLEVOIX     CLOUDY    53  43  67 CALM      29.70S
FRANKFORT      MOSUNNY   64  50  58 CALM      29.65S
GAYLORD        CLOUDY    68  48  48 S9        29.69F
GRAYLING       CLOUDY    66  50  55 S10G16    29.71F
HARBOR SPRINGS CLOUDY    64  48  57 E12       29.68R
HOUGHTON LAKE  PTSUNNY   66  50  56 S8        29.71F
MANISTEE       MOSUNNY   70  53  54 VRB6      29.62F
OSCODA         CLOUDY    53  46  77 S7        29.75F
PELLSTON       CLOUDY    55  42  61 N9        29.70F
ROGERS CITY    CLOUDY    50  44  79 E8        29.75S
TRAVERSE CITY  CLOUDY    67  50  54 VRB6      29.64S
$$
MIZ007>008-015-260000-
EASTERN UPPER MICHIGAN

CITY           SKY/WX    TMP DP  RH WIND       PRES   REMARKS
KINROSS        CLOUDY    48  45  89 E14G25    29.77R
MACKINAC ISLAN HVY SNOW  41  41 100 E21G31    29.74S VSB<1/4
NEWBERRY       CLOUDY    60  46  60 E15       29.70R
S. S. MARIE    CLOUDY    51  45  79 E12G18    29.77S
MUNISING         N/A     65  48  54 S14       29.63F
$$
MIZ004>006-011>014-085-260000-
CENTRAL UPPER MICHIGAN

CITY           SKY/WX    TMP DP  RH WIND       PRES   REMARKS
MANISTIQUE     CLOUDY    52  44  75 E13G18    29.68F
ESCANABA       MOSUNNY   55  46  71 E12       29.66F
MENOMINEE      CLOUDY    60  50  69 S8        29.63R
SAWYER-GWINN   SUNNY     63  48  59 S16G24    29.64S
$$
MIZ001>003-009>011-084-260000-
WESTERN UPPER MICHIGAN

CITY           SKY/WX    TMP DP  RH WIND       PRES   REMARKS
IRON MOUNTAIN  CLOUDY    65  44  46 SE9G18    29.60R
HOUGHTON       CLOUDY    59  41  51 N9        29.59S
COPPER HARBOR    N/A     40  37  89 N3        29.65S
IRONWOOD       CLOUDY    45  37  73 VRB5      29.63R
$$

ABBREVIATIONS USED IN REMARKS
   TC - TEMPERATURE IN CELSIUS
  WCI - WIND CHILL INDEX
   HX - HEAT INDEX
  VSB - VISIBILITY





USA.gov is the U.S. government's official web portal to all federal, state and local government web resources and services.